Regional Weather Roundup
Issued by NWS Midland/Odessa, TX

Skip options and go directly to product.
Home | Oldest Version | Next Version | Current Version | All | Text Only | Save Text | Print | Product List | Glossary On

Skip product version selection by date and time.   
702
ASUS44 KMAF 051601
RWRMAF
MIDLAND AREA WEATHER ROUNDUP
NATIONAL WEATHER SERVICE MIDLAND TX
1000 AM CST THU MAR 05 2015

...IN SOUTHWEST TEXAS AND SOUTHEAST NEW MEXICO...

CITY           SKY/WX    TMP DP  RH WIND       PRES   REMARKS
ALPINE         CLOUDY    24  23  96 NE8       30.54R WCI  15
ANDREWS        FAIR      29  14  53 NE3       30.56R
ARTESIA        CLOUDY    28  23  80 S5        30.55R WCI  23
BIG SPRING     SUNNY     33  15  48 N9        30.60R WCI  26
CARLSBAD       CLOUDY    30  21  69 CALM      30.55R
DRYDEN           N/A     33  24  69 N12       30.57R WCI  24
FORT STOCKTON  CLOUDY    26  21  81 NE7       30.58R WCI  18
GUAD PASS      NOT AVBL
HOBBS          SUNNY     28  18  64 CALM      30.53R
MARFA          SUNNY     28  21  74 N14       30.46R WCI  17
MIDLAND AIRPK  MOSUNNY   31  19  59 N7        30.58R WCI  24
MIDLAND INTL   SUNNY     31  16  54 NE12      30.57R WCI  22
ODESSA         MOSUNNY   30  13  49 NE8       30.57R WCI  22
PECOS          CLOUDY    29  23  76 NE6       30.61R WCI  23
PRESIDIO       CLOUDY    36  23  59 NE15      30.51R WCI  27
SEMINOLE       SUNNY     29  12  49 CALM      30.56R
SNYDER         SUNNY     28  17  64 N7        30.59R WCI  21
WINK           CLOUDY    30  14  51 E5        30.58R WCI  25
$$
...OTHER STATIONS IN TEXAS...

CITY           SKY/WX    TMP DP  RH WIND       PRES   REMARKS
ABILENE        SUNNY     27  17  66 N12       30.61R WCI  17
AMARILLO       SUNNY     29  18  63 W9        30.47S WCI  20
AUSTIN         MOSUNNY   35  26  69 N28G35    30.53R WCI  22
BROWNSVILLE    CLOUDY    43  38  82 N20G31    30.40R WCI  34
CORPUS CHRISTI CLOUDY    39  33  79 N25G36    30.45R WCI  28
DALLAS FTW     MOSUNNY   29  14  53 N16       30.60R WCI  17
DEL RIO        CLOUDY    37  25  61 N13       30.62R WCI  29
EL PASO        MOSUNNY   34  21  59 E8        30.45R WCI  27
HOUSTON INT    CLOUDY    38  33  82 N21G26    30.44R WCI  28
LUBBOCK        SUNNY     27  19  72 NW3       30.53R
SAN ANGELO     SUNNY     31  16  54 N15       30.59R WCI  20
SAN ANTONIO    PTSUNNY   37  26  64 N17G26    30.52R WCI  27
WACO           SUNNY     30  22  72 N18       30.59R WCI  18
WICHITA FALLS  NOT AVBL
$$
...OTHER LOCATIONS IN NEW MEXICO...

CITY           SKY/WX    TMP DP  RH WIND       PRES   REMARKS
ALAMAGORDO     SUNNY     32  23  69 S10       30.46R WCI  24
ALBUQUERQUE    SUNNY     29  17  61 NW6       30.41R WCI  23
CANNON AFB     NOT AVBL
CLOVIS         SUNNY     27  19  74 SW13      30.46S WCI  16
HOLLOMAN AFB   NOT AVBL
ROSWELL        CLOUDY    29  22  75 S3        30.52R
RUIDOSO        CLOUDY    18  16  93 E3        30.38R FOG
SANTA FE       SUNNY     27  10  49 N16       30.35R WCI  15
TRUTH OR CONSE SUNNY     35  19  52 NE9       30.42R WCI  28
TUCUMCARI      PTSUNNY   28  21  75 W15       30.44S WCI  16
$$

USA.gov is the U.S. government's official web portal to all federal, state and local government web resources and services.